Location: Newark
(46.1292°N, 1.0086°W)
Time: 17:18:29
(UTC+00:00)

Courier 1B - All Passes

Search period start: 22 November 2019 00:00
Search period end: 02 December 2019 00:00
Orbit: 963 x 1209 km, 28.3° (Epoch: 21 November)

Date Brightness Start Highest point End Pass type
(mag) Time Alt. Az. Time Alt. Az. Time Alt. Az.
22 Nov - 05:25:33 10° SSW 05:29:20 15° S 05:33:01 10° SE visible
22 Nov - 07:18:18 10° SW 07:22:09 16° S 07:25:55 10° SSE daylight
23 Nov - 04:32:22 10° SSW 04:35:51 14° SSE 04:39:15 10° SE visible
23 Nov - 06:24:31 10° SW 06:28:41 17° S 06:32:44 10° SE visible
23 Nov - 08:19:19 10° SW 08:21:25 12° SSW 08:23:28 10° S daylight
24 Nov - 03:39:30 10° S 03:42:21 13° SSE 03:45:09 10° SE visible
24 Nov - 05:30:51 10° SW 05:35:12 17° S 05:39:25 10° SE visible
24 Nov - 07:24:46 10° SW 07:28:00 14° SSW 07:31:10 10° SSE daylight
25 Nov - 02:47:21 10° S 02:48:51 11° SSE 02:50:20 10° SSE visible
25 Nov - 04:37:18 10° SSW 04:41:41 17° S 04:45:57 10° SE visible
25 Nov - 06:30:37 10° SW 06:34:33 16° S 06:38:22 10° SSE visible
26 Nov - 03:43:53 10° SSW 03:48:10 16° S 03:52:19 10° SE visible
26 Nov - 05:36:39 10° SW 05:41:04 17° S 05:45:19 10° SSE visible
26 Nov - 07:32:42 10° SSW 07:33:47 10° SSW 07:34:51 10° SSW daylight
27 Nov - 02:50:40 10° SSW 02:54:38 15° SSE 02:58:29 10° SE visible
27 Nov - 04:42:51 10° SW 04:47:33 18° S 04:52:06 10° SE visible
27 Nov - 06:37:21 10° SW 06:40:21 13° SSW 06:43:17 10° S visible
28 Nov - 01:57:46 10° S 02:01:04 13° SSE 02:04:20 10° SE visible
28 Nov - 03:49:09 10° SW 03:54:01 18° S 03:58:41 10° SE visible
28 Nov - 05:42:57 10° SW 05:46:53 15° SSW 05:50:43 10° SSE visible
29 Nov - 01:05:33 10° S 01:07:32 11° SSE 01:09:30 10° SE night (unlit)
29 Nov - 02:55:36 10° SSW 03:00:26 18° S 03:05:09 10° SE visible
29 Nov - 04:48:50 10° SW 04:53:23 17° S 04:57:47 10° SSE visible
30 Nov - 02:02:12 10° SSW 02:06:51 17° S 02:11:24 10° SE visible
30 Nov - 03:54:54 10° SW 03:59:50 19° S 04:04:38 10° SE visible
30 Nov - 05:50:04 10° SW 05:52:39 12° SSW 05:55:10 10° S visible
01 Dec - 01:09:02 10° SSW 01:13:16 15° SSE 01:17:26 10° SE night (unlit)
01 Dec - 03:01:06 10° SW 03:06:15 19° S 03:11:16 10° SE visible
01 Dec - 04:55:21 10° SW 04:59:10 15° SSW 05:02:53 10° SSE visible
